Weather History for KEKN - December, 2012

Change the Weather History Date:

Thursday, December 13, 2012

  Actual Average Record
Temperature  
Mean Temperature 33 °F 33 °F  
Max Temperature 49 °F 43 °F 68 °F (1927)
Min Temperature 17 °F 23 °F -11 °F (1962)
Degree Days  
Heating Degree Days 32 32  
Month to date heating degree days 280 394  
Since 1 July heating degree days 1695 1678  
Cooling Degree Days 0 0  
Month to date cooling degree days 0 0  
Year to date cooling degree days 675 475  
Moisture  
Dew Point 18 °F    
Average Humidity 59    
Maximum Humidity 92    
Minimum Humidity 26    
Precipitation  
Precipitation 0.00 in 0.10 in 1.09 in (1919)
Month to date precipitation 2.29 1.46  
Year to date precipitation 44.40 44.13  
Snow  
Snow 0.00 in - - ()
Month to date snowfall 0.0  
Since 1 September snowfall 18.4  
Snow Depth 0.00 in    
Sea Level Pressure  
Sea Level Pressure 30.39 in    
Wind  
Wind Speed 0 mph (West)    
Max Wind Speed 5 mph    
Max Gust Speed 6 mph    
Visibility 4 miles    
Events Fog    
T = Trace of Precipitation, MM = Missing Value Source: NWS Daily Summary

Daily Weather History Graph

Daily Weather History Graph

Search for Another Location

Airport or City:

Trip Planner

Search our weather history database for the weather conditions in past years. The results will help you decide how hot, cold, wet, or windy it might be!

Date:

Astronomy

Dec. 13, 2012 Rise Set
Actual Time 7:29 AM EST 4:58 PM EST
Civil Twilight 6:59 AM EST 5:27 PM EST
Nautical Twilight 6:26 AM EST 6:01 PM EST
Astronomical Twilight 5:53 AM EST 6:33 PM EST
Moon 7:36 AM EST (12/13) 5:38 PM EST (12/13)
Length of Visible Light 10h 28m
Length of Day
9h 28m
New Moon, 0% of the Moon is Illuminated
Dec 13
New Moon
Dec 20
First Quarter
Dec 28
Full
Jan 4
Last Quarter
Jan 11
New

Hourly Weather History & Observations

Time (EST) Temp. Windchill Dew Point Humidity Pressure Visibility Wind Dir Wind Speed Gust Speed Precip Events Conditions
12:51 AM 21.0 °F - 18.0 °F 88% 30.41 in 6.0 mi Calm Calm - N/A   Clear
1:14 AM 21.2 °F - 17.6 °F 86% 30.32 in 6.0 mi Calm Calm - N/A   Partly Cloudy
1:26 AM 21.2 °F - 17.6 °F 86% 30.33 in 1.5 mi Calm Calm - N/A   Scattered Clouds
1:28 AM 21.2 °F - 17.6 °F 86% 30.33 in 0.8 mi Calm Calm - N/A   Mist
1:37 AM 21.2 °F - 19.4 °F 93% 30.34 in 0.2 mi Calm Calm - N/A Fog Light Freezing Fog
1:46 AM 21.2 °F - 17.6 °F 86% 30.34 in 0.8 mi Calm Calm - N/A   Mist
1:51 AM 21.0 °F - 18.0 °F 88% 30.43 in 2.5 mi Calm Calm - N/A   Mostly Cloudy
1:57 AM 19.4 °F - 17.6 °F 93% 30.35 in 4.0 mi Calm Calm - N/A   Scattered Clouds
2:04 AM 19.4 °F - 17.6 °F 93% 30.35 in 2.5 mi Calm Calm - N/A   Mostly Cloudy
2:11 AM 19.4 °F - 17.6 °F 93% 30.35 in 1.0 mi Calm Calm - N/A   Mist
2:16 AM 19.4 °F - 17.6 °F 93% 30.35 in 2.0 mi Calm Calm - N/A   Scattered Clouds
2:24 AM 19.4 °F - 17.6 °F 93% 30.34 in 6.0 mi Calm Calm - N/A   Scattered Clouds
2:51 AM 19.9 °F - 17.1 °F 89% 30.43 in 7.0 mi Calm Calm - N/A   Clear
3:08 AM 19.4 °F - 15.8 °F 86% 30.34 in 5.0 mi Calm Calm - N/A   Partly Cloudy
3:10 AM 19.4 °F 14.3 °F 17.6 °F 93% 30.34 in 1.5 mi West 3.5 mph - N/A   Scattered Clouds
3:12 AM 21.2 °F 16.4 °F 17.6 °F 86% 30.34 in 0.8 mi West 3.5 mph - N/A   Mist
3:23 AM 21.2 °F - 19.4 °F 93% 30.34 in 0.2 mi Calm Calm - N/A Fog Light Freezing Fog
3:51 AM 21.9 °F - 19.9 °F 92% 30.43 in 0.2 mi Calm Calm - N/A Fog Light Freezing Fog
4:51 AM 21.0 °F - 18.0 °F 88% 30.45 in 0.5 mi Calm Calm - N/A Fog Light Freezing Fog
5:09 AM 19.4 °F - 17.6 °F 93% 30.36 in 0.2 mi Calm Calm - N/A Fog Light Freezing Fog
5:51 AM 19.9 °F - 17.1 °F 89% 30.45 in 0.2 mi Calm Calm - N/A Fog Light Freezing Fog
6:16 AM 19.4 °F - 15.8 °F 86% 30.36 in 1.0 mi Calm Calm - N/A   Mist
6:20 AM 19.4 °F - 15.8 °F 86% 30.36 in 3.0 mi Calm Calm - N/A   Overcast
6:41 AM 19.4 °F - 17.6 °F 93% 30.37 in 2.5 mi Calm Calm - N/A   Overcast
6:49 AM 19.4 °F - 15.8 °F 86% 30.37 in 3.0 mi Calm Calm - N/A   Overcast
6:51 AM 19.4 °F - 15.8 °F 86% 30.37 in 2.5 mi Calm Calm - N/A   Overcast
7:05 AM 17.6 °F - 14.0 °F 86% 30.37 in 6.0 mi Calm Calm - N/A   Scattered Clouds
7:22 AM 19.4 °F - 15.8 °F 86% 30.38 in 2.5 mi Calm Calm - N/A   Scattered Clouds
7:29 AM 17.6 °F - 14.0 °F 86% 30.38 in 6.0 mi Calm Calm - N/A   Mostly Cloudy
7:46 AM 19.4 °F - 14.0 °F 80% 30.39 in 0.8 mi Calm Calm - N/A   Haze
7:51 AM 19.0 °F - 15.1 °F 85% 30.49 in 0.5 mi Calm Calm - N/A Fog Light Freezing Fog
8:01 AM 19.4 °F - 15.8 °F 86% 30.39 in 0.2 mi Calm Calm - N/A Fog Light Freezing Fog
8:23 AM 21.2 °F - 17.6 °F 86% 30.39 in 1.0 mi Calm Calm - N/A   Mist
8:35 AM 21.2 °F - 17.6 °F 86% 30.39 in 0.5 mi Calm Calm - N/A Fog Light Freezing Fog
8:51 AM 23.0 °F - 19.0 °F 85% 30.49 in 0.8 mi Calm Calm - N/A   Mostly Cloudy
8:57 AM 23.0 °F - 19.4 °F 86% 30.40 in 2.0 mi Calm Calm - N/A   Scattered Clouds
9:05 AM 24.8 °F - 19.4 °F 80% 30.40 in 5.0 mi Calm Calm - N/A   Haze
9:51 AM 25.0 °F - 21.0 °F 85% 30.50 in 6.0 mi Calm Calm - N/A   Clear
10:51 AM 28.9 °F - 26.1 °F 89% 30.48 in 8.0 mi Calm Calm - N/A   Clear
11:51 AM 36.0 °F - 27.0 °F 70% 30.44 in 10.0 mi Calm Calm - N/A   Clear
12:51 PM 42.1 °F - 24.1 °F 49% 30.41 in 10.0 mi Calm Calm - N/A   Clear
1:51 PM 46.0 °F - 19.0 °F 34% 30.38 in 10.0 mi Calm Calm - N/A   Clear
2:51 PM 48.0 °F - 16.0 °F 28% 30.36 in 10.0 mi Calm Calm - N/A   Clear
3:51 PM 48.0 °F - 18.0 °F 30% 30.37 in 10.0 mi Calm Calm - N/A   Clear
4:51 PM 37.0 °F - 23.0 °F 57% 30.38 in 10.0 mi Calm Calm - N/A   Clear
7:51 PM 26.1 °F - 21.9 °F 84% 30.42 in 10.0 mi Calm Calm - N/A   Clear
8:51 PM 24.1 °F - 21.0 °F 88% 30.40 in 10.0 mi Calm Calm - N/A   Clear
9:51 PM 23.0 °F - 19.9 °F 88% 30.39 in 10.0 mi Calm Calm - N/A   Clear
10:51 PM 21.9 °F - 19.0 °F 89% 30.39 in 10.0 mi Calm Calm - N/A   Clear